Track COSMOS 2023 (GLONASS) now! COSMOS 2023 (GLONASS) is classified as:
1 20025U 89039B 21017.40886663 -.00000060 00000-0 00000-0 0 9997 2 20025 65.5385 18.4048 0018760 205.0044 330.1924 2.13103944246130